Location: ?????????
(41.2393°N, 22.9479°E)
Time: 22:03:46
(UTC+00:00)

Cosmos 1943 Rocket - Pass Details

Date: 17 November 2025
Orbit: 812 x 841 km, 71.0° (Epoch: 11 December)

Event Time Altitude Azimuth Distance (km) Brightness Sun altitude
Rises 15:57:22 0° 199° (SSW) 3,372 5.9 -9.6°
Reaches altitude 10° 15:59:47 10° 198° (SSW) 2,439 5.1 -10.1°
Maximum altitude 16:05:23 81° 111° (ESE) 847 2.1 -11.1°
Drops below altitude 10° 16:10:59 10° 26° (NNE) 2,437 4.2 -12.1°
Enters shadow 16:12:42 - 25° (NNE) 3,093 4.8 -12.4°
